(276546) = 2003 ST100

Discovered at Desert Eagle on 2003-09-20 by W. K. Y. Yeung.

Orbit

Orbit type: Main Belt

Note: WebGL enabled browser required.

epoch2024-03-31.0
epoch JD2460400.5
perihelion date2023-02-26.78514
perihelion JD2460002.28514
argument of perihelion (°)186.04000
ascending node (°)193.16295
inclination (°)15.22176
eccentricity0.1432775
perihelion distance (AU)2.4457654
Tisserand w.r.t. Jupiter3.2
ΔV w.r.t. Earth (km/sec)10.9
semimajor axis (AU)2.8547929
mean anomaly (°)81.36908
mean daily motion (°/day)0.20433460
aphelion distance (AU)3.264
period (years)4.82
P-vector [x]0.94520007
P-vector [y]0.30946528
P-vector [z]0.10405803
Q-vector [x]-0.32097048
Q-vector [y]0.93912323
Q-vector [z]0.12257860
absolute magnitude16.27
phase slope0.15
uncertainty0
referenceMPEC 2024-D105
observations used415
oppositions14
arc length (days)7459
first opposition used2003
last opposition used2024
residual rms (arc-secs)0.72
perturbers coarse indicatorM-v
perturbers precise indicator003Ek
first observation date used2003-09-20.0
last observation date used2024-02-21.0
computer nameMPCLINUX
JD of orbit computation2456700.219220
perihelion JD uncertainty (days)1.2093E-04
argument of perihelion uncertainty (°)3.1943E-05
ascending node uncertainty (°)1.8218E-05
inclination uncertainty (°)8.2733E-06
eccentricity uncertainty 9.0349E-08
perihelion distance uncertainty (AU)2.4732E-07
Minimum Orbit Intersection Distances (in AU)
for orbit epoch: 2460400.5, reference: E2024-DA5
Mercury2.10316
Venus1.72081
Earth1.4481
Mars1.0261
Jupiter2.18843
Saturn6.27501
Uranus15.2384
Neptune27.3638

Observations

427 total observations over interval: 2003 09 20.21279 – 2024 02 21.366266
These data are available for download (format description).

Date (UT) J2000 RA J2000 Dec Magn Location Ref
2003 09 20.21279 00 55 47.44 +08 29 02.2 20.3 R 333 – Desert Eagle Observatory MPS 85454
2003 09 20.23604 00 55 46.61 +08 28 46.8 19.9 R 333 – Desert Eagle Observatory MPS 85454
2003 09 20.25729 00 55 45.91 +08 28 33.2 20.2 R 333 – Desert Eagle Observatory MPS 85454
2003 09 20.29874 00 55 44.45 +08 28 07.5 19.8   704 – Lincoln Laboratory ETS, New Mexico MPS 85454
2003 09 20.31118 00 55 43.98 +08 28 01.4 19.9   704 – Lincoln Laboratory ETS, New Mexico MPS 85454
2003 09 20.32368 00 55 43.59 +08 27 49.9 20.2   704 – Lincoln Laboratory ETS, New Mexico MPS 85454
2003 09 20.33641 00 55 43.15 +08 27 41.9 20.0   704 – Lincoln Laboratory ETS, New Mexico MPS 85454
2003 09 20.34907 00 55 42.64 +08 27 34.6 20.1   704 – Lincoln Laboratory ETS, New Mexico MPS 85454
2003 09 21.19356 00 55 14.82 +08 18 29.3 20.4 R 333 – Desert Eagle Observatory MPS 85454
2003 09 21.22721 00 55 13.70 +08 18 06.9 20.3 R 333 – Desert Eagle Observatory MPS 85454
2003 09 21.25759 00 55 12.58 +08 17 47.4 19.7 R 333 – Desert Eagle Observatory MPS 85454
2003 09 21.26068 00 55 12.48 +08 17 45.0 19.0 R 699 – Lowell Observatory-LONEOS MPS 85454
2003 09 21.26739 00 55 12.28 +08 17 41.4   699 – Lowell Observatory-LONEOS MPS 85454
2003 09 21.27395 00 55 12.01 +08 17 36.6   699 – Lowell Observatory-LONEOS MPS 85454
2003 09 21.28052 00 55 11.80 +08 17 32.0   699 – Lowell Observatory-LONEOS MPS 85454
2003 09 21.37894 00 55 08.24 +08 16 28.4 19.8 V 691 – Steward Observatory, Kitt Peak-Spacewatch MPS 85454
2003 09 21.40521 00 55 07.29 +08 16 11.2 19.9 V 691 – Steward Observatory, Kitt Peak-Spacewatch MPS 85454
2003 09 21.43165 00 55 06.36 +08 15 54.0 19.8 V 691 – Steward Observatory, Kitt Peak-Spacewatch MPS 85454
2003 09 22.18248 00 54 41.11 +08 07 41.2 20.3 R 333 – Desert Eagle Observatory MPS 86308
2003 09 22.21083 00 54 40.12 +08 07 22.8 20.1 R 333 – Desert Eagle Observatory MPS 86308
2003 09 22.23716 00 54 39.14 +08 07 05.2 19.9 R 333 – Desert Eagle Observatory MPS 86308
2003 09 22.31402 00 54 36.37 +08 06 15.4 19.1 R 699 – Lowell Observatory-LONEOS MPS 85454
2003 09 22.33060 00 54 35.77 +08 06 03.5   699 – Lowell Observatory-LONEOS MPS 85454
2003 09 22.34725 00 54 35.15 +08 05 52.7   699 – Lowell Observatory-LONEOS MPS 85454
2003 09 22.36380 00 54 34.58 +08 05 41.5   699 – Lowell Observatory-LONEOS MPS 85455
2003 09 25.50526 00 52 41.83 +07 30 23.1 20.6   608 – Haleakala-AMOS MPS 85455
2003 09 25.51545 00 52 41.40 +07 30 16.6 20.9   608 – Haleakala-AMOS MPS 85455
2003 09 25.52664 00 52 40.93 +07 30 09.6 20.5   608 – Haleakala-AMOS MPS 85455
2003 09 26.17669 00 52 17.31 +07 22 41.0 20.3 R 333 – Desert Eagle Observatory MPS 85455
2003 09 26.20029 00 52 16.40 +07 22 24.6 19.8 R 333 – Desert Eagle Observatory MPS 85455
2003 09 26.22382 00 52 15.51 +07 22 09.0 20.1 R 333 – Desert Eagle Observatory MPS 85455
2003 09 26.23436 00 52 15.07 +07 21 59.5 19.3   704 – Lincoln Laboratory ETS, New Mexico MPS 85455
2003 09 26.24683 00 52 14.59 +07 21 51.1 19.2   704 – Lincoln Laboratory ETS, New Mexico MPS 85455
2003 09 26.25974 00 52 14.03 +07 21 42.9 19.7   704 – Lincoln Laboratory ETS, New Mexico MPS 85455
2003 09 26.27211 00 52 13.50 +07 21 35.2 19.8   704 – Lincoln Laboratory ETS, New Mexico MPS 85455
2003 09 26.28476 00 52 13.06 +07 21 26.5 19.4   704 – Lincoln Laboratory ETS, New Mexico MPS 85455
2003 09 29.24543 00 50 20.19 +06 46 50.6 19.7   704 – Lincoln Laboratory ETS, New Mexico MPS 87034
2003 09 29.25849 00 50 19.73 +06 46 40.1 19.8   704 – Lincoln Laboratory ETS, New Mexico MPS 87034
2003 09 29.28355 00 50 18.61 +06 46 23.0 19.9   704 – Lincoln Laboratory ETS, New Mexico MPS 87034
2003 10 20.26998 00 36 52.92 +02 37 06.8 20.1   704 – Lincoln Laboratory ETS, New Mexico MPS 89454
2003 10 20.28181 00 36 52.51 +02 36 57.9 19.8   704 – Lincoln Laboratory ETS, New Mexico MPS 89454
2003 10 20.29344 00 36 52.14 +02 36 50.6 19.5   704 – Lincoln Laboratory ETS, New Mexico MPS 89454
2003 10 20.30512 00 36 51.65 +02 36 42.0 19.8   704 – Lincoln Laboratory ETS, New Mexico MPS 89454
2003 10 21.20938 00 36 21.85 +02 26 42.4 21.2 R 683 – Goodricke-Pigott Observatory, Tucson MPS 89454
2003 10 21.21929 00 36 21.56 +02 26 36.5 19.3   644 – Palomar Mountain/NEAT MPS 89454
2003 10 21.22279 00 36 21.43 +02 26 34.1 21.1 R 683 – Goodricke-Pigott Observatory, Tucson MPS 89454
2003 10 21.23616 00 36 21.07 +02 26 23.5 21.4 R 683 – Goodricke-Pigott Observatory, Tucson MPS 89454
2003 10 21.24016 00 36 20.83 +02 26 22.5 19.1   644 – Palomar Mountain/NEAT MPS 89454
2003 10 21.26189 00 36 20.09 +02 26 08.4 19.1   644 – Palomar Mountain/NEAT MPS 89454
2003 10 24.20011 00 34 48.07 +01 54 32.2 21.1 R 683 – Goodricke-Pigott Observatory, Tucson MPS 88166
2003 10 24.21352 00 34 47.68 +01 54 25.8 20.9 R 683 – Goodricke-Pigott Observatory, Tucson MPS 88166
2003 10 24.22691 00 34 47.21 +01 54 16.2 20.8 R 683 – Goodricke-Pigott Observatory, Tucson MPS 88166
2003 10 24.23146 00 34 47.00 +01 54 13.0 19.4   704 – Lincoln Laboratory ETS, New Mexico MPS 89454
2003 10 24.24447 00 34 46.56 +01 54 04.7 20.0   704 – Lincoln Laboratory ETS, New Mexico MPS 89454
2003 10 24.25761 00 34 46.18 +01 53 57.0 19.6   704 – Lincoln Laboratory ETS, New Mexico MPS 89454
2003 10 24.27077 00 34 45.78 +01 53 48.2 20.1   704 – Lincoln Laboratory ETS, New Mexico MPS 89454
2003 10 24.28343 00 34 45.33 +01 53 40.5 19.7   704 – Lincoln Laboratory ETS, New Mexico MPS 89454
2003 10 28.19621 00 32 57.55 +01 14 03.6 18.6 C 704 – Lincoln Laboratory ETS, New Mexico MPS 291468
2003 10 28.22105 00 32 56.70 +01 13 50.0 19.3 C 704 – Lincoln Laboratory ETS, New Mexico MPS 291468
2003 10 28.23485 00 32 56.27 +01 13 40.8 19.0 C 704 – Lincoln Laboratory ETS, New Mexico MPS 291468
2003 10 28.24804 00 32 55.95 +01 13 35.1 19.1 C 704 – Lincoln Laboratory ETS, New Mexico MPS 291468
2003 11 16.179980 00 29 00.608 -01 08 48.41 20.16 V 645 – Apache Point-Sloan Digital Sky Survey MPS 172823
2003 11 16.183452 00 29 00.608 -01 08 49.46 20.85   645 – Apache Point-Sloan Digital Sky Survey MPS 172823
2006 02 28.44770 13 41 57.87 -10 15 13.7 20.8 V G96 – Mt. Lemmon Survey MPS 172823
2006 02 28.45216 13 41 57.80 -10 15 12.5 21.5 V G96 – Mt. Lemmon Survey MPS 172823
2006 02 28.45659 13 41 57.76 -10 15 11.5 21.8 V G96 – Mt. Lemmon Survey MPS 172823
2006 02 28.46116 13 41 57.69 -10 15 09.8 21.0 V G96 – Mt. Lemmon Survey MPS 172823
2006 04 24.16965 13 10 21.22 -03 41 20.1 21.3 V 691 – Steward Observatory, Kitt Peak-Spacewatch MPS 172823
2006 04 24.18241 13 10 20.71 -03 41 13.9 21.1 V 691 – Steward Observatory, Kitt Peak-Spacewatch MPS 172823
2006 04 24.19516 13 10 20.20 -03 41 08.6 21.0 V 691 – Steward Observatory, Kitt Peak-Spacewatch MPS 172824
2006 05 21.21514 12 57 14.72 -01 05 09.2 21.6 V G96 – Mt. Lemmon Survey MPS 173582
2006 05 21.22010 12 57 14.65 -01 05 07.9 21.9 V G96 – Mt. Lemmon Survey MPS 173582
2006 05 21.22508 12 57 14.58 -01 05 06.7 21.5 V G96 – Mt. Lemmon Survey MPS 173582
2006 05 21.23004 12 57 14.50 -01 05 05.2 21.4 V G96 – Mt. Lemmon Survey MPS 173582
2008 09 23.46070 02 37 26.52 +10 15 33.1 19.8 V 691 – Steward Observatory, Kitt Peak-Spacewatch MPS 256624
2008 09 23.47833 02 37 26.30 +10 15 23.3 19.7 V 691 – Steward Observatory, Kitt Peak-Spacewatch MPS 256624
2008 09 23.49598 02 37 26.07 +10 15 13.7 19.7 V 691 – Steward Observatory, Kitt Peak-Spacewatch MPS 256624
2008 09 30.29074 02 35 37.63 +09 09 57.4 19.3   704 – Lincoln Laboratory ETS, New Mexico MPS 257852
2008 09 30.30295 02 35 37.44 +09 09 49.6 20.1   704 – Lincoln Laboratory ETS, New Mexico MPS 257852
2008 09 30.31527 02 35 37.13 +09 09 43.6 20.1   704 – Lincoln Laboratory ETS, New Mexico MPS 257852
2008 09 30.32757 02 35 36.76 +09 09 34.2 19.4   704 – Lincoln Laboratory ETS, New Mexico MPS 257852
2008 09 30.33988 02 35 36.53 +09 09 28.2 20.3   704 – Lincoln Laboratory ETS, New Mexico MPS 257852
2008 10 08.42810 02 32 00.06 +07 44 03.3 19.1 V 703 – Catalina Sky Survey MPS 259189
2008 10 08.43410 02 31 59.91 +07 44 00.5 19.3 V 703 – Catalina Sky Survey MPS 259189
2008 10 08.44012 02 31 59.70 +07 43 56.1 19.2 V 703 – Catalina Sky Survey MPS 259189
2008 10 08.44608 02 31 59.52 +07 43 50.4 19.1 V 703 – Catalina Sky Survey MPS 259189
